Showing default

KORSAT-2, 62377

Orbit data source: Space-Track

KORSAT-2, 62377 is a payload satellite owned by DAPA (KR) in LEO that was launched on Sat, 21 Dec 2024 UTC via an FALCON 9 launch vehicle from the Air Force Western Test Range (AFWTR). Payload-class satellites include a variety of spacecraft equipped with specific instruments for various scientific and technological missions. These include communications satellites like Starlink; space stations such as the ISS; scientific satellites like the Hubble; Earth observation satellites from companies like Planet Labs, Umbra, and HawkEye 360; GPS; miniature CubeSats for education and research; and military/defense satellites.

Loading next visibility...
Identifier
62377, 2024-247A
Orbit
LEO
Country
Flag of UnknownUnknown / SKOR
Related business
Manufacturer
KAI
Mission
Operational Defense Radar Imaging
Bus & Motor
CAS500?, Unknown motor
Mass
~800 kg wet, ~750 kg dry
Launch date (UTC)
2024-12-21 (11 months ago)
Launch vehicle
FALCON 9
Launch site
Air Force Western Test Range (AFWTR)
Object type
Payload
Rocket body
Debris
Shape & HBR
Hex Box + 3 Pan, 3.0 m
Radar Cross Section
10.467 m², Large (>1 m²)

Expand to show TLE details & history
Last TLE update: 1 day ago

TLE from 1 day ago
0 KORSAT-2
1 62377U 24247A   25338.42754971  .00011513  00000-0  94727-3 0  9997
2 62377  45.4105 357.4454 0008443 266.4748  93.5165 14.99231004 52340
Epoch: 2025-12-04T10:15Z
TLE epoch observation values (Epoch: 2025-12-04T10:15:40.294Z)
Latitude
-0.00002°
Longitude
130.04335°
Altitude
569.68 km
Speed
7.578 km/s
True Right ascension
23h 49m 46s
True Declination
0° 00' 00"
Sunlit
Object was in daylight at epoch
Visualization orbit readout
Latitude
Unknown
Longitude
Unknown
Altitude
Unknown
Speed
Unknown
Apparent Right ascension
Unknown
Apparent Declination
Unknown
Sunlit
N/A
Visualization observer readout
Local Sidereal Time
13:09:30
Azimuth
Unknown
Elevation
Unknown
Doppler factor
Unknown
Orbital elements
Apogee altitude
576.659 km
Perigee altitude
564.925 km
Semi-major axis
6,948.929 km
Eccentricity
0.00084
Inclination
45.4105°
RAAN
357.4454°
Arg. of periapsis
266.4748°
True anomaly
93.61306°
Mean anomaly
93.5165°
Eccentric anomaly
93.56478°
Mean motion
3.74685 °/min
Orbital period
96.08 mins
BSTAR
0.00094727
Loading maneuver chart data...
Computing Atmospheric mass density...
Loading historical data...
Loading historical data...
Loading historical data...
Loading historical data...
Loading historical data...
Loading historical data...
Loading historical data...

Documentation

Showing up to 5 results
|